Flag for Moldova Weather past 2 weeks in Bălți, Moldova

Now
34 °F

Sunny.


Feels Like: 25 °F
Forecast: 42 / 48 °F
Wind: 13 mph from Southwest

Location: Baltsi-Leadoveni - The North of Moldova

Current Time: Dec 22, 2014 at 10:14:47 AM

Latest Report: Dec 22, 2014 at 9:30 AM


Visibility: 10 mi

Pressure: 30.07 "Hg

Humidity: 75%

Dew point: 27 °F

Location of BălțiLocation

Historic Weather in Bălți — Graph

°F

Bălți temperature yesterday

Maximum temperature yesterday: 39 °F (at 2:00 PM)
Minimum temperature yesterday: 34 °F (at 1:00 AM)
Average temperature yesterday: 36 °F

Past Weeks' High & Low Weather Summary

 TemperatureHumidityPressure
High43 °F (Dec 14, 12:00 PM)100% (Dec 7, 11:00 PM)30.21 "Hg (Dec 7, 11:00 PM)
Low25 °F (Dec 7, 9:00 AM)66% (Dec 13, 2:00 PM)29.77 "Hg (Dec 17, 2:00 PM)
Average34 °F92%30.05 "Hg
* Reported Dec 7 9:00 AM — Dec 22 9:00 AM, Bălți, Weather by CustomWeather, © 2014

Note: Actual official high and low records may vary slightly from our data, if they occured in-between our weather recording intervals... More about our weather records

Advertising

Bălți weather history for previous 24 hours

 ConditionsComfort  
Time TempWeatherWind HumidityBarometerVisibility
9:00 AM
Dec 22
34 °FSunny.12 mph75%30.07 "Hg10 mi
8:00 AM34 °FChilly.10 mph75%30.07 "HgN/A
7:00 AM34 °FChilly.12 mph75%30.07 "HgN/A
6:00 AM34 °FChilly.10 mph75%30.07 "HgN/A
5:00 AM36 °FChilly.10 mph70%30.09 "HgN/A
4:00 AM34 °FChilly.13 mph75%30.09 "HgN/A
3:00 AM34 °FChilly.12 mph81%30.12 "HgN/A
1:30 AM36 °FChilly.15 mph75%30.12 "HgN/A
1:00 AM36 °FChilly.13 mph81%30.12 "HgN/A
12:30 AM36 °FChilly.14 mph81%30.12 "HgN/A
11:30 PM
Dec 21
34 °FChilly.14 mph87%30.12 "HgN/A
11:00 PM34 °FChilly.13 mph87%30.12 "HgN/A
10:00 PM34 °FChilly.15 mph87%30.09 "HgN/A
9:00 PM34 °FChilly.14 mph87%30.09 "HgN/A
8:00 PM36 °FChilly.23 mph81%30.07 "HgN/A
7:00 PM34 °FChilly.17 mph87%30.04 "HgN/A
6:00 PM36 °FChilly.14 mph75%30.01 "HgN/A
5:00 PM36 °FChilly.13 mph81%30.01 "HgN/A
4:00 PM37 °FBroken clouds.12 mph75%29.98 "HgN/A
3:00 PM37 °FBroken clouds.12 mph81%29.98 "HgN/A
2:00 PM39 °FScattered clouds.14 mph75%29.95 "HgN/A
1:00 PM37 °FPartly sunny.10 mph81%29.95 "HgN/A
12:00 PM37 °FPartly sunny.17 mph81%29.92 "HgN/A
11:00 AM37 °FScattered clouds.8 mph75%29.92 "HgN/A
10:00 AM37 °FSunny.7 mph70%29.92 "Hg10 mi
Weather by CustomWeather, © 2014

See weather overviewHow to use our weather pages